| time (UTC) | temp F | wind direction | speed MPH | gust MPH | rain 1hr in | rain 24hr in | rain mn in | humidity % | barometer mb |
| 20260508211405 | 77 | 171 | 3.0 | 15.0 | 0.00 | 0.00 | 0.00 | 39 | 1009.8 |
| 20260508210904 | 77 | 165 | 5.0 | 10.0 | 0.00 | 0.00 | 0.00 | 38 | 1009.8 |
| 20260508205905 | 77 | 201 | 3.0 | 12.0 | 0.00 | 0.00 | 0.00 | 39 | 1009.9 |
| 20260508205405 | 77 | 183 | 3.0 | 13.0 | 0.00 | 0.00 | 0.00 | 39 | 1010.0 |
| 20260508204904 | 77 | 151 | 4.0 | 12.0 | 0.00 | 0.00 | 0.00 | 39 | 1010.1 |
| 20260508204404 | 77 | 238 | 2.0 | 18.0 | 0.00 | 0.00 | 0.00 | 39 | 1010.1 |
| 20260508203905 | 77 | 336 | 1.0 | 12.0 | 0.00 | 0.00 | 0.00 | 40 | 1010.1 |
| 20260508203405 | 77 | 152 | 3.0 | 13.0 | 0.00 | 0.00 | 0.00 | 40 | 1010.3 |
| 20260508202904 | 77 | 296 | 3.0 | 13.0 | 0.00 | 0.00 | 0.00 | 40 | 1010.3 |
| 20260508201905 | 76 | 223 | 1.0 | 18.0 | 0.00 | 0.00 | 0.00 | 42 | 1010.5 |
| 20260508201404 | 76 | 165 | 5.0 | 16.0 | 0.00 | 0.00 | 0.00 | 41 | 1010.5 |
| 20260508200904 | 76 | 181 | 0.0 | 2.0 | 0.00 | 0.00 | 0.00 | 40 | 1010.7 |
| 20260508200404 | 76 | 209 | 1.0 | 12.0 | 0.00 | 0.00 | 0.00 | 42 | 1010.8 |
| 20260508195905 | 76 | 210 | 7.0 | 13.0 | 0.00 | 0.00 | 0.00 | 41 | 1010.9 |
| 20260508195404 | 76 | 324 | 4.0 | 13.0 | 0.00 | 0.00 | 0.00 | 42 | 1011.0 |
| 20260508194904 | 76 | 136 | 6.0 | 12.0 | 0.00 | 0.00 | 0.00 | 42 | 1011.0 |
| 20260508194404 | 76 | 197 | 5.0 | 12.0 | 0.00 | 0.00 | 0.00 | 41 | 1011.1 |
| 20260508193404 | 76 | 175 | 4.0 | 12.0 | 0.00 | 0.00 | 0.00 | 41 | 1011.2 |
| 20260508192904 | 76 | 196 | 0.0 | 5.0 | 0.00 | 0.00 | 0.00 | 42 | 1011.3 |
| 20260508191905 | 75 | 188 | 0.0 | 1.0 | 0.00 | 0.00 | 0.00 | 46 | 1011.4 |
| 20260508191404 | 75 | 150 | 0.0 | 14.0 | 0.00 | 0.00 | 0.00 | 44 | 1011.6 |
| 20260508190904 | 75 | 328 | 7.0 | 12.0 | 0.00 | 0.00 | 0.00 | 42 | 1011.6 |
| 20260508190405 | 75 | 198 | 1.0 | 8.0 | 0.00 | 0.00 | 0.00 | 43 | 1011.7 |
| 20260508185404 | 74 | 152 | 5.0 | 12.0 | 0.00 | 0.00 | 0.00 | 44 | 1012.0 |
| 20260508184904 | 74 | 187 | 3.0 | 13.0 | 0.00 | 0.00 | 0.00 | 43 | 1012.2 |
| 20260508183404 | 74 | 208 | 3.0 | 9.0 | 0.00 | 0.00 | 0.00 | 44 | 1012.3 |
| 20260508182904 | 74 | 331 | 2.0 | 12.0 | 0.00 | 0.00 | 0.00 | 46 | 1012.4 |
| 20260508182405 | 74 | 186 | 3.0 | 8.0 | 0.00 | 0.00 | 0.00 | 45 | 1012.5 |
| 20260508181904 | 73 | 205 | 1.0 | 10.0 | 0.00 | 0.00 | 0.00 | 47 | 1012.6 |
| 20260508181404 | 73 | 330 | 5.0 | 15.0 | 0.00 | 0.00 | 0.00 | 44 | 1012.6 |
| 20260508180905 | 73 | 153 | 3.0 | 14.0 | 0.00 | 0.00 | 0.00 | 46 | 1012.9 |
| 20260508180404 | 73 | 305 | 0.0 | 12.0 | 0.00 | 0.00 | 0.00 | 45 | 1012.9 |
| 20260508175904 | 73 | 162 | 5.0 | 12.0 | 0.00 | 0.00 | 0.00 | 46 | 1012.9 |
| 20260508175405 | 73 | 236 | 4.0 | 12.0 | 0.00 | 0.00 | 0.00 | 46 | 1013.0 |
| 20260508174904 | 73 | 258 | 5.0 | 15.0 | 0.00 | 0.00 | 0.00 | 45 | 1013.0 |
| 20260508174404 | 73 | 273 | 1.0 | 10.0 | 0.00 | 0.00 | 0.00 | 45 | 1013.2 |
| 20260508173904 | 73 | 310 | 7.0 | 13.0 | 0.00 | 0.00 | 0.00 | 44 | 1013.3 |
| 20260508173404 | 73 | 272 | 5.0 | 12.0 | 0.00 | 0.00 | 0.00 | 46 | 1013.2 |
| 20260508172404 | 72 | 183 | 0.0 | 9.0 | 0.00 | 0.00 | 0.00 | 47 | 1013.2 |
| 20260508171904 | 72 | 165 | 5.0 | 12.0 | 0.00 | 0.00 | 0.00 | 47 | 1013.4 |
| 20260508170904 | 71 | 168 | 0.0 | 12.0 | 0.00 | 0.00 | 0.00 | 49 | 1013.6 |
| 20260508165904 | 71 | 154 | 7.0 | 10.0 | 0.00 | 0.00 | 0.00 | 48 | 1013.7 |
| 20260508165404 | 71 | 150 | 6.0 | 18.0 | 0.00 | 0.00 | 0.00 | 47 | 1013.7 |
| 20260508164904 | 71 | 179 | 6.0 | 10.0 | 0.00 | 0.00 | 0.00 | 49 | 1013.8 |
| 20260508164404 | 71 | 166 | 6.0 | 12.0 | 0.00 | 0.00 | 0.00 | 48 | 1013.7 |
| 20260508163904 | 71 | 167 | 6.0 | 12.0 | 0.00 | 0.00 | 0.00 | 48 | 1013.8 |
| 20260508163404 | 71 | 185 | 5.0 | 18.0 | 0.00 | 0.00 | 0.00 | 48 | 1013.9 |
| 20260508162904 | 71 | 326 | 5.0 | 12.0 | 0.00 | 0.00 | 0.00 | 48 | 1013.8 |
| 20260508162404 | 71 | 188 | 3.0 | 8.0 | 0.00 | 0.00 | 0.00 | 50 | 1013.9 |
| 20260508161904 | 70 | 167 | 5.0 | 12.0 | 0.00 | 0.00 | 0.00 | 50 | 1013.9 |
| 20260508161404 | 70 | 249 | 5.0 | 13.0 | 0.00 | 0.00 | 0.00 | 49 | 1013.9 |
| 20260508160404 | 70 | 190 | 7.0 | 14.0 | 0.00 | 0.00 | 0.00 | 48 | 1014.3 |
| 20260508155904 | 70 | 271 | 0.0 | 7.0 | 0.00 | 0.00 | 0.00 | 51 | 1014.4 |
| 20260508154904 | 69 | 153 | 3.0 | 10.0 | 0.00 | 0.00 | 0.00 | 52 | 1014.7 |
| 20260508154404 | 69 | 173 | 3.0 | 10.0 | 0.00 | 0.00 | 0.00 | 51 | 1014.7 |
| 20260508153404 | 69 | 165 | 4.0 | 10.0 | 0.00 | 0.00 | 0.00 | 50 | 1014.9 |
| 20260508152404 | 68 | 175 | 4.0 | 10.0 | 0.00 | 0.00 | 0.00 | 51 | 1014.9 |
| 20260508151904 | 67 | 137 | 2.0 | 8.0 | 0.00 | 0.00 | 0.00 | 52 | 1015.0 |
| 20260508151404 | 67 | 132 | 3.0 | 12.0 | 0.00 | 0.00 | 0.00 | 52 | 1015.1 |
| 20260508150904 | 67 | 287 | 5.0 | 9.0 | 0.00 | 0.00 | 0.00 | 52 | 1015.1 |
| 20260508150404 | 66 | 184 | 3.0 | 12.0 | 0.00 | 0.00 | 0.00 | 52 | 1015.3 |
| 20260508145904 | 66 | 174 | 6.0 | 14.0 | 0.00 | 0.00 | 0.00 | 52 | 1015.4 |
| 20260508145404 | 66 | 146 | 4.0 | 10.0 | 0.00 | 0.00 | 0.00 | 52 | 1015.4 |
| 20260508144904 | 65 | 190 | 2.0 | 12.0 | 0.00 | 0.00 | 0.00 | 53 | 1015.5 |
| 20260508144404 | 65 | 165 | 4.0 | 9.0 | 0.00 | 0.00 | 0.00 | 54 | 1015.6 |
| 20260508143903 | 64 | 175 | 0.0 | 10.0 | 0.00 | 0.00 | 0.00 | 54 | 1015.6 |
| 20260508143403 | 64 | 200 | 4.0 | 13.0 | 0.00 | 0.00 | 0.00 | 54 | 1015.7 |
| 20260508142904 | 63 | 205 | 5.0 | 10.0 | 0.00 | 0.00 | 0.00 | 53 | 1015.7 |
| 20260508142403 | 63 | 168 | 6.0 | 15.0 | 0.00 | 0.00 | 0.00 | 54 | 1015.7 |
| 20260508141904 | 62 | 226 | 0.0 | 9.0 | 0.00 | 0.00 | 0.00 | 56 | 1015.8 |
| 20260508141404 | 62 | 220 | 6.0 | 12.0 | 0.00 | 0.00 | 0.00 | 57 | 1015.8 |
| 20260508140904 | 61 | 184 | 2.0 | 10.0 | 0.00 | 0.00 | 0.00 | 58 | 1015.8 |
| 20260508140403 | 60 | 162 | 5.0 | 12.0 | 0.00 | 0.00 | 0.00 | 57 | 1015.8 |
| 20260508135904 | 60 | 188 | 3.0 | 10.0 | 0.00 | 0.00 | 0.00 | 58 | 1015.9 |
| 20260508135404 | 59 | 159 | 3.0 | 8.0 | 0.00 | 0.00 | 0.00 | 59 | 1015.9 |
| 20260508134904 | 58 | 165 | 1.0 | 8.0 | 0.00 | 0.00 | 0.00 | 61 | 1016.0 |
| 20260508134404 | 58 | 197 | 2.0 | 7.0 | 0.00 | 0.00 | 0.00 | 61 | 1015.9 |
| 20260508133904 | 57 | 283 | 2.0 | 10.0 | 0.00 | 0.00 | 0.00 | 62 | 1015.9 |
| 20260508133404 | 57 | 175 | 1.0 | 8.0 | 0.00 | 0.00 | 0.00 | 63 | 1015.9 |
| 20260508132904 | 56 | 163 | 0.0 | 0.0 | 0.00 | 0.00 | 0.00 | 64 | 1015.9 |
| 20260508131905 | 55 | 142 | 0.0 | 0.0 | 0.00 | 0.00 | 0.00 | 67 | 1016.0 |
| 20260508131404 | 54 | 157 | 0.0 | 0.0 | 0.00 | 0.00 | 0.00 | 69 | 1015.9 |
| 20260508130404 | 53 | 149 | 0.0 | 0.0 | 0.00 | 0.00 | 0.00 | 72 | 1015.7 |
| 20260508125404 | 52 | 152 | 0.0 | 0.0 | 0.00 | 0.00 | 0.00 | 71 | 1015.7 |
| 20260508124904 | 52 | 152 | 0.0 | 0.0 | 0.00 | 0.00 | 0.00 | 72 | 1015.7 |
| 20260508123904 | 51 | 148 | 0.0 | 0.0 | 0.00 | 0.00 | 0.00 | 72 | 1015.7 |
| 20260508123404 | 50 | 147 | 0.0 | 0.0 | 0.00 | 0.00 | 0.00 | 73 | 1015.7 |
| 20260508122905 | 50 | 141 | 0.0 | 0.0 | 0.00 | 0.00 | 0.00 | 73 | 1015.7 |
| 20260508122405 | 50 | 146 | 0.0 | 0.0 | 0.00 | 0.00 | 0.00 | 74 | 1015.7 |
| 20260508121903 | 49 | 141 | 0.0 | 0.0 | 0.00 | 0.00 | 0.00 | 74 | 1015.7 |
| 20260508120903 | 48 | 146 | 0.0 | 0.0 | 0.00 | 0.00 | 0.00 | 75 | 1015.5 |
| 20260508120404 | 48 | 146 | 0.0 | 0.0 | 0.00 | 0.00 | 0.00 | 75 | 1015.5 |
| 20260508114904 | 47 | 159 | 0.0 | 0.0 | 0.00 | 0.00 | 0.00 | 76 | 1015.5 |
| 20260508114403 | 47 | 159 | 0.0 | 0.0 | 0.00 | 0.00 | 0.00 | 76 | 1015.5 |
| 20260508113904 | 47 | 159 | 0.0 | 0.0 | 0.00 | 0.00 | 0.00 | 76 | 1015.5 |
| 20260508113404 | 47 | 159 | 0.0 | 0.0 | 0.00 | 0.00 | 0.00 | 76 | 1015.5 |
| 20260508112904 | 46 | 159 | 0.0 | 0.0 | 0.00 | 0.00 | 0.00 | 76 | 1015.5 |
| 20260508112404 | 46 | 159 | 0.0 | 0.0 | 0.00 | 0.00 | 0.00 | 76 | 1015.5 |
| 20260508111903 | 46 | 161 | 0.0 | 0.0 | 0.00 | 0.00 | 0.00 | 76 | 1015.5 |
| 20260508111404 | 46 | 161 | 0.0 | 0.0 | 0.00 | 0.00 | 0.00 | 76 | 1015.3 |
| 20260508110903 | 46 | 161 | 0.0 | 0.0 | 0.00 | 0.00 | 0.00 | 76 | 1015.2 |
| 20260508110404 | 46 | 161 | 0.0 | 0.0 | 0.00 | 0.00 | 0.00 | 76 | 1015.1 |
| 20260508105904 | 46 | 161 | 0.0 | 0.0 | 0.00 | 0.00 | 0.00 | 76 | 1015.1 |
| 20260508105403 | 46 | 161 | 0.0 | 0.0 | 0.00 | 0.00 | 0.00 | 76 | 1015.1 |
| 20260508104904 | 46 | 161 | 0.0 | 0.0 | 0.00 | 0.00 | 0.00 | 76 | 1015.2 |
| 20260508104403 | 46 | 161 | 0.0 | 0.0 | 0.00 | 0.00 | 0.00 | 76 | 1015.1 |
| 20260508103904 | 46 | 161 | 0.0 | 0.0 | 0.00 | 0.00 | 0.00 | 76 | 1015.0 |
| 20260508103404 | 45 | 161 | 0.0 | 0.0 | 0.00 | 0.00 | 0.00 | 76 | 1015.0 |
| 20260508102904 | 45 | 161 | 0.0 | 0.0 | 0.00 | 0.00 | 0.00 | 76 | 1015.0 |
| 20260508101903 | 45 | 169 | 0.0 | 0.0 | 0.00 | 0.00 | 0.00 | 76 | 1015.0 |
| 20260508101403 | 45 | 169 | 0.0 | 0.0 | 0.00 | 0.00 | 0.00 | 75 | 1015.1 |
| 20260508100904 | 45 | 169 | 0.0 | 0.0 | 0.00 | 0.00 | 0.00 | 75 | 1015.1 |
| 20260508100404 | 45 | 169 | 0.0 | 0.0 | 0.00 | 0.00 | 0.00 | 75 | 1015.1 |
| 20260508095903 | 45 | 169 | 0.0 | 0.0 | 0.00 | 0.00 | 0.00 | 74 | 1015.1 |
| 20260508095404 | 46 | 169 | 0.0 | 0.0 | 0.00 | 0.00 | 0.00 | 74 | 1015.1 |
| 20260508094903 | 46 | 169 | 0.0 | 0.0 | 0.00 | 0.00 | 0.00 | 74 | 1015.1 |
| 20260508094404 | 46 | 169 | 0.0 | 0.0 | 0.00 | 0.00 | 0.00 | 73 | 1015.2 |
| 20260508093903 | 46 | 169 | 0.0 | 0.0 | 0.00 | 0.00 | 0.00 | 73 | 1015.1 |
| 20260508092904 | 46 | 169 | 0.0 | 0.0 | 0.00 | 0.00 | 0.00 | 73 | 1015.2 |
| 20260508091904 | 46 | 169 | 0.0 | 0.0 | 0.00 | 0.00 | 0.00 | 73 | 1015.2 |
| 20260508091403 | 46 | 169 | 0.0 | 0.0 | 0.00 | 0.00 | 0.00 | 73 | 1015.2 |
| 20260508090405 | 46 | 169 | 0.0 | 0.0 | 0.00 | 0.00 | 0.00 | 73 | 1015.1 |
| 20260508085905 | 46 | 169 | 0.0 | 0.0 | 0.00 | 0.00 | 0.00 | 73 | 1015.2 |
| 20260508085405 | 46 | 169 | 0.0 | 0.0 | 0.00 | 0.00 | 0.00 | 73 | 1015.1 |
| 20260508084406 | 46 | 169 | 0.0 | 0.0 | 0.00 | 0.00 | 0.00 | 72 | 1015.2 |
| 20260508083405 | 46 | 169 | 0.0 | 0.0 | 0.00 | 0.00 | 0.00 | 72 | 1015.2 |
| 20260508082905 | 46 | 170 | 0.0 | 0.0 | 0.00 | 0.00 | 0.00 | 72 | 1015.3 |
| 20260508081905 | 46 | 170 | 0.0 | 0.0 | 0.00 | 0.00 | 0.00 | 71 | 1015.4 |
| 20260508080905 | 47 | 169 | 0.0 | 0.0 | 0.00 | 0.00 | 0.00 | 71 | 1015.5 |
| 20260508080405 | 47 | 169 | 0.0 | 0.0 | 0.00 | 0.00 | 0.00 | 70 | 1015.5 |
| 20260508074905 | 47 | 169 | 0.0 | 0.0 | 0.00 | 0.00 | 0.00 | 70 | 1015.7 |
| 20260508074405 | 47 | 169 | 0.0 | 0.0 | 0.00 | 0.00 | 0.00 | 70 | 1015.7 |
| 20260508073905 | 47 | 169 | 0.0 | 0.0 | 0.00 | 0.00 | 0.00 | 70 | 1015.7 |
| 20260508072905 | 47 | 170 | 0.0 | 0.0 | 0.00 | 0.00 | 0.00 | 69 | 1015.8 |
| 20260508072405 | 47 | 170 | 0.0 | 0.0 | 0.00 | 0.00 | 0.00 | 70 | 1015.7 |
| 20260508071905 | 47 | 177 | 0.0 | 0.0 | 0.00 | 0.00 | 0.00 | 70 | 1015.8 |
| 20260508070905 | 47 | 177 | 0.0 | 0.0 | 0.00 | 0.00 | 0.00 | 71 | 1015.9 |
| 20260508070405 | 47 | 177 | 0.0 | 0.0 | 0.00 | 0.00 | 0.00 | 71 | 1015.9 |
| 20260508065905 | 47 | 177 | 0.0 | 0.0 | 0.00 | 0.00 | 0.00 | 72 | 1016.0 |
| 20260508064405 | 46 | 204 | 0.0 | 0.0 | 0.00 | 0.00 | 0.00 | 72 | 1015.8 |
| 20260508063906 | 46 | 204 | 0.0 | 0.0 | 0.00 | 0.00 | 0.00 | 72 | 1016.0 |
| 20260508062905 | 47 | 204 | 0.0 | 0.0 | 0.00 | 0.00 | 0.00 | 71 | 1016.0 |
| 20260508062405 | 47 | 204 | 0.0 | 0.0 | 0.00 | 0.00 | 0.00 | 70 | 1016.0 |
| 20260508061405 | 47 | 204 | 0.0 | 0.0 | 0.00 | 0.00 | 0.00 | 69 | 1016.1 |
| 20260508060906 | 47 | 204 | 0.0 | 0.0 | 0.00 | 0.00 | 0.00 | 69 | 1016.1 |
| 20260508060405 | 47 | 204 | 0.0 | 0.0 | 0.00 | 0.00 | 0.00 | 69 | 1016.2 |
| 20260508055905 | 47 | 204 | 0.0 | 0.0 | 0.00 | 0.00 | 0.00 | 69 | 1016.2 |
| 20260508055406 | 47 | 204 | 0.0 | 0.0 | 0.00 | 0.00 | 0.00 | 68 | 1016.2 |
| 20260508054905 | 48 | 204 | 0.0 | 0.0 | 0.00 | 0.00 | 0.00 | 68 | 1016.2 |
| 20260508054405 | 48 | 204 | 0.0 | 0.0 | 0.00 | 0.00 | 0.00 | 67 | 1016.2 |
| 20260508053905 | 48 | 203 | 0.0 | 0.0 | 0.00 | 0.00 | 0.00 | 67 | 1016.3 |
| 20260508053405 | 48 | 204 | 0.0 | 0.0 | 0.00 | 0.00 | 0.00 | 66 | 1016.2 |
| 20260508052905 | 48 | 204 | 0.0 | 0.0 | 0.00 | 0.00 | 0.00 | 66 | 1016.2 |
| 20260508052405 | 48 | 204 | 0.0 | 0.0 | 0.00 | 0.00 | 0.00 | 65 | 1016.3 |
| 20260508051905 | 49 | 204 | 0.0 | 0.0 | 0.00 | 0.00 | 0.00 | 65 | 1016.4 |
| 20260508051405 | 49 | 204 | 0.0 | 0.0 | 0.00 | 0.00 | 0.00 | 65 | 1016.3 |
| 20260508050905 | 49 | 204 | 0.0 | 0.0 | 0.00 | 0.00 | 0.00 | 64 | 1016.4 |
| 20260508050405 | 49 | 204 | 0.0 | 0.0 | 0.00 | 0.00 | 0.00 | 64 | 1016.4 |
| 20260508045905 | 49 | 204 | 0.0 | 0.0 | 0.00 | 0.00 | 0.00 | 64 | 1016.4 |
| 20260508044905 | 49 | 204 | 0.0 | 0.0 | 0.00 | 0.00 | 0.00 | 64 | 1016.4 |
| 20260508044405 | 49 | 204 | 0.0 | 0.0 | 0.00 | 0.00 | 0.00 | 63 | 1016.4 |
| 20260508043905 | 49 | 204 | 0.0 | 0.0 | 0.00 | 0.00 | 0.00 | 63 | 1016.5 |
| 20260508043405 | 49 | 204 | 0.0 | 0.0 | 0.00 | 0.00 | 0.00 | 63 | 1016.5 |
| 20260508042905 | 49 | 204 | 0.0 | 0.0 | 0.00 | 0.00 | 0.00 | 63 | 1016.5 |
| 20260508042405 | 49 | 205 | 0.0 | 0.0 | 0.00 | 0.00 | 0.00 | 63 | 1016.4 |
| 20260508041405 | 50 | 206 | 0.0 | 0.0 | 0.00 | 0.00 | 0.00 | 62 | 1016.3 |
| 20260508040905 | 50 | 206 | 0.0 | 0.0 | 0.00 | 0.00 | 0.00 | 62 | 1016.3 |
| 20260508040406 | 50 | 206 | 0.0 | 0.0 | 0.00 | 0.00 | 0.00 | 62 | 1016.3 |
| 20260508034405 | 51 | 206 | 0.0 | 0.0 | 0.00 | 0.00 | 0.00 | 60 | 1016.1 |
| 20260508033405 | 51 | 206 | 0.0 | 0.0 | 0.00 | 0.00 | 0.00 | 60 | 1016.1 |
| 20260508032905 | 51 | 206 | 0.0 | 0.0 | 0.00 | 0.00 | 0.00 | 60 | 1016.1 |
| 20260508032405 | 51 | 206 | 0.0 | 0.0 | 0.00 | 0.00 | 0.00 | 60 | 1016.1 |
| 20260508031905 | 51 | 206 | 0.0 | 0.0 | 0.00 | 0.00 | 0.00 | 59 | 1016.0 |
| 20260508031405 | 52 | 206 | 0.0 | 0.0 | 0.00 | 0.00 | 0.00 | 59 | 1016.1 |
| 20260508030904 | 52 | 206 | 0.0 | 0.0 | 0.00 | 0.00 | 0.00 | 59 | 1016.1 |
| 20260508030405 | 52 | 206 | 0.0 | 0.0 | 0.00 | 0.00 | 0.00 | 58 | 1016.2 |
| 20260508025905 | 52 | 206 | 0.0 | 0.0 | 0.00 | 0.00 | 0.00 | 58 | 1016.1 |
| 20260508025405 | 52 | 206 | 0.0 | 0.0 | 0.00 | 0.00 | 0.00 | 58 | 1016.1 |
| 20260508024905 | 52 | 206 | 0.0 | 0.0 | 0.00 | 0.00 | 0.00 | 57 | 1016.1 |
| 20260508024405 | 53 | 206 | 0.0 | 0.0 | 0.00 | 0.00 | 0.00 | 56 | 1016.1 |
| 20260508023904 | 53 | 206 | 0.0 | 0.0 | 0.00 | 0.00 | 0.00 | 56 | 1016.0 |
| 20260508023405 | 53 | 206 | 0.0 | 0.0 | 0.00 | 0.00 | 0.00 | 55 | 1016.1 |
| 20260508022405 | 53 | 206 | 0.0 | 0.0 | 0.00 | 0.00 | 0.00 | 54 | 1016.0 |
| 20260508021905 | 53 | 206 | 0.0 | 0.0 | 0.00 | 0.00 | 0.00 | 53 | 1015.9 |
| 20260508020905 | 54 | 206 | 0.0 | 0.0 | 0.00 | 0.00 | 0.00 | 52 | 1015.9 |
| 20260508020404 | 54 | 206 | 0.0 | 0.0 | 0.00 | 0.00 | 0.00 | 51 | 1015.8 |
| 20260508015905 | 54 | 206 | 0.0 | 0.0 | 0.00 | 0.00 | 0.00 | 51 | 1015.7 |
| 20260508015405 | 55 | 206 | 0.0 | 0.0 | 0.00 | 0.00 | 0.00 | 50 | 1015.6 |
| 20260508014904 | 55 | 206 | 0.0 | 0.0 | 0.00 | 0.00 | 0.00 | 49 | 1015.6 |
| 20260508014405 | 55 | 206 | 0.0 | 0.0 | 0.00 | 0.00 | 0.00 | 49 | 1015.6 |
| 20260508013405 | 56 | 206 | 0.0 | 0.0 | 0.00 | 0.00 | 0.00 | 48 | 1015.4 |
| 20260508012905 | 56 | 206 | 0.0 | 0.0 | 0.00 | 0.00 | 0.00 | 47 | 1015.3 |
| 20260508012405 | 57 | 206 | 0.0 | 0.0 | 0.00 | 0.00 | 0.00 | 46 | 1015.2 |
| 20260508011905 | 57 | 206 | 0.0 | 0.0 | 0.00 | 0.00 | 0.00 | 45 | 1015.2 |
| 20260508010905 | 58 | 206 | 0.0 | 0.0 | 0.00 | 0.00 | 0.00 | 44 | 1015.3 |
| 20260508010405 | 59 | 206 | 0.0 | 0.0 | 0.00 | 0.00 | 0.00 | 42 | 1015.2 |
| 20260508005905 | 59 | 216 | 0.0 | 0.0 | 0.00 | 0.00 | 0.00 | 41 | 1015.3 |
| 20260508004905 | 60 | 216 | 0.0 | 0.0 | 0.00 | 0.00 | 0.00 | 39 | 1015.2 |
| 20260508004405 | 61 | 216 | 0.0 | 0.0 | 0.00 | 0.00 | 0.00 | 38 | 1015.1 |
| 20260508003904 | 62 | 216 | 0.0 | 0.0 | 0.00 | 0.00 | 0.00 | 37 | 1015.1 |
| 20260508002904 | 63 | 216 | 0.0 | 0.0 | 0.00 | 0.00 | 0.00 | 35 | 1015.0 |
| 20260508002405 | 64 | 216 | 0.0 | 0.0 | 0.00 | 0.00 | 0.00 | 35 | 1015.1 |
| 20260508001905 | 65 | 216 | 0.0 | 0.0 | 0.00 | 0.00 | 0.00 | 33 | 1015.1 |
| 20260508001404 | 66 | 217 | 0.0 | 0.0 | 0.00 | 0.00 | 0.00 | 33 | 1015.0 |
| 20260508000405 | 67 | 217 | 0.0 | 0.0 | 0.00 | 0.00 | 0.00 | 30 | 1015.2 |
| 20260507235405 | 68 | 199 | 0.0 | 0.0 | 0.00 | 0.00 | 0.00 | 30 | 1015.1 |
| 20260507234904 | 68 | 199 | 0.0 | 0.0 | 0.00 | 0.00 | 0.00 | 31 | 1015.1 |
| 20260507234405 | 68 | 161 | 0.0 | 0.0 | 0.00 | 0.00 | 0.00 | 30 | 1015.0 |
| 20260507233404 | 67 | 161 | 0.0 | 0.0 | 0.00 | 0.00 | 0.00 | 31 | 1015.1 |
| 20260507232905 | 67 | 147 | 0.0 | 0.0 | 0.00 | 0.00 | 0.00 | 31 | 1015.2 |
| 20260507232404 | 66 | 178 | 0.0 | 0.0 | 0.00 | 0.00 | 0.00 | 32 | 1015.2 |
| 20260507231905 | 66 | 281 | 0.0 | 0.0 | 0.00 | 0.00 | 0.00 | 33 | 1015.2 |
| 20260507230904 | 67 | 250 | 0.0 | 0.0 | 0.00 | 0.00 | 0.00 | 30 | 1015.4 |
| 20260507230404 | 67 | 258 | 0.0 | 0.0 | 0.00 | 0.00 | 0.00 | 30 | 1015.4 |
| 20260507225905 | 66 | 208 | 0.0 | 0.0 | 0.00 | 0.00 | 0.00 | 33 | 1015.5 |
| 20260507225405 | 66 | 352 | 0.0 | 0.0 | 0.00 | 0.00 | 0.00 | 30 | 1015.5 |
| 20260507224904 | 66 | 351 | 0.0 | 0.0 | 0.00 | 0.00 | 0.00 | 30 | 1015.5 |
| 20260507224405 | 67 | 257 | 0.0 | 0.0 | 0.00 | 0.00 | 0.00 | 29 | 1015.5 |
| 20260507223404 | 66 | 241 | 0.0 | 0.0 | 0.00 | 0.00 | 0.00 | 32 | 1015.6 |
| 20260507222904 | 66 | 298 | 0.0 | 0.0 | 0.00 | 0.00 | 0.00 | 32 | 1015.6 |
| 20260507222405 | 66 | 292 | 0.0 | 0.0 | 0.00 | 0.00 | 0.00 | 31 | 1015.7 |
| 20260507221905 | 67 | 333 | 0.0 | 0.0 | 0.00 | 0.00 | 0.00 | 28 | 1015.7 |
| 20260507221404 | 67 | 267 | 0.0 | 0.0 | 0.00 | 0.00 | 0.00 | 29 | 1015.8 |
| 20260507220905 | 67 | 259 | 0.0 | 0.0 | 0.00 | 0.00 | 0.00 | 29 | 1015.8 |
| 20260507220405 | 67 | 29 | 0.0 | 0.0 | 0.00 | 0.00 | 0.00 | 30 | 1015.7 |
| 20260507215905 | 67 | 339 | 0.0 | 0.0 | 0.00 | 0.00 | 0.00 | 32 | 1015.7 |
| 20260507215405 | 66 | 15 | 0.0 | 0.0 | 0.00 | 0.00 | 0.00 | 31 | 1015.7 |
| 20260507214904 | 67 | 346 | 0.0 | 0.0 | 0.00 | 0.00 | 0.00 | 32 | 1015.7 |
| 20260507214405 | 66 | 271 | 0.0 | 0.0 | 0.00 | 0.00 | 0.00 | 29 | 1015.8 |
| 20260507212905 | 66 | 274 | 0.0 | 0.0 | 0.00 | 0.00 | 0.00 | 31 | 1015.8 |
| 20260507212404 | 66 | 339 | 0.0 | 0.0 | 0.00 | 0.00 | 0.00 | 33 | 1015.7 |
| 20260507211904 | 67 | 289 | 0.0 | 0.0 | 0.00 | 0.00 | 0.00 | 31 | 1015.6 |